YAOGAN-35 03C (52909 NORAD) Tracking and Keplerian Element Data

This shows tracking and keplerian element data for the satellite.

Feedback or suggestion? Click here.




ElementValue
Catalog52909
NameYAOGAN-35 03C
Epoch Orbit1130
Epoch Day248.16786802
Epoch Year2022
RAAN176.3736
Inclination34.9969
Eccentricity0.0009971
Argument of Perigee219.8329
Mean Anonmoly275.1166
Mean Motion15.23054302
Decay Rate9.234E-05
L11 52909U 22068C 22248.16786802 .00009234 00000+0 38324-3 0 9999
L22 52909 34.9969 176.3736 0009971 219.8329 275.1166 15.23054302 11308

Live tracking and technical data element details for YAOGAN-35 03C (NORAD 52909). YAOGAN-35 03C can be tracked NOW for your location showing map with azimuth and elevation plus other details from your city location.

Track the satellite on the map from your city or location and see movement details for azimuth, elevation, latitude, longitude, range, height, and movement on the map or in text.







IsCatalogInMostPopularTable: catalog: 52909, numindb: 16
Update: records affected: 1



GetName: 52909 YAOGAN-35 03C

Hit Count: updated at: Sun, 25 Sep 2022 09:15:23 GMT